| time (UTC) | temp F | wind direction | speed MPH | gust MPH | rain 1hr in | rain 24hr in | rain mn in | humidity % | barometer mb |
| 20260506211509 | 59 | 51 | 0.0 | 3.0 | 0.00 | 0.47 | 0.25 | 50 | 1011.9 |
| 20260506211006 | 59 | 51 | 1.0 | 3.0 | 0.00 | 0.47 | 0.25 | 48 | 1011.9 |
| 20260506210506 | 59 | 329 | 0.0 | 3.0 | 0.00 | 0.47 | 0.25 | 48 | 1011.7 |
| 20260506210009 | 59 | 329 | 0.0 | 3.0 | 0.00 | 0.56 | 0.25 | 46 | 1011.8 |
| 20260506205505 | 59 | 315 | 1.0 | 2.0 | 0.00 | 0.56 | 0.25 | 47 | 1011.9 |
| 20260506205005 | 59 | 323 | 0.0 | 3.0 | 0.01 | 0.56 | 0.25 | 48 | 1011.8 |
| 20260506204506 | 59 | 323 | 0.0 | 3.0 | 0.01 | 0.56 | 0.25 | 48 | 1011.9 |
| 20260506204006 | 59 | 342 | 0.0 | 4.0 | 0.01 | 0.56 | 0.25 | 47 | 1011.7 |
| 20260506203508 | 59 | 355 | 1.0 | 4.0 | 0.01 | 0.56 | 0.25 | 47 | 1012.0 |
| 20260506203008 | 59 | 355 | 0.0 | 0.0 | 0.01 | 0.56 | 0.25 | 48 | 1012.0 |
| 20260506202505 | 59 | 355 | 0.0 | 0.0 | 0.01 | 0.56 | 0.25 | 47 | 1011.9 |
| 20260506202004 | 59 | 355 | 0.0 | 0.0 | 0.01 | 0.56 | 0.25 | 44 | 1011.9 |
| 20260506201504 | 59 | 344 | 0.0 | 0.0 | 0.01 | 0.56 | 0.25 | 48 | 1011.9 |
| 20260506201006 | 60 | 344 | 0.0 | 0.0 | 0.01 | 0.56 | 0.25 | 45 | 1011.9 |
| 20260506200505 | 60 | 360 | 0.0 | 0.0 | 0.01 | 0.56 | 0.25 | 47 | 1011.8 |
| 20260506200004 | 60 | 5 | 0.0 | 0.0 | 0.01 | 0.67 | 0.25 | 48 | 1011.9 |
| 20260506195503 | 60 | 5 | 0.0 | 0.0 | 0.01 | 0.67 | 0.25 | 46 | 1012.0 |
| 20260506195003 | 60 | 5 | 0.0 | 0.0 | 0.00 | 0.66 | 0.24 | 45 | 1011.9 |
| 20260506194505 | 61 | 329 | 0.0 | 0.0 | 0.00 | 0.66 | 0.24 | 48 | 1011.8 |
| 20260506194003 | 61 | 307 | 0.0 | 0.0 | 0.00 | 0.66 | 0.24 | 50 | 1011.8 |
| 20260506193502 | 61 | 311 | 0.0 | 0.0 | 0.01 | 0.66 | 0.24 | 50 | 1011.8 |
| 20260506193003 | 61 | 311 | 0.0 | 0.0 | 0.01 | 0.66 | 0.24 | 47 | 1011.6 |
| 20260506192506 | 61 | 330 | 0.0 | 0.0 | 0.01 | 0.66 | 0.24 | 45 | 1011.5 |
| 20260506192002 | 61 | 104 | 0.0 | 0.0 | 0.01 | 0.66 | 0.24 | 47 | 1011.4 |
| 20260506191502 | 62 | 309 | 0.0 | 0.0 | 0.01 | 0.66 | 0.24 | 47 | 1011.5 |
| 20260506191002 | 62 | 309 | 0.0 | 2.0 | 0.01 | 0.66 | 0.24 | 44 | 1011.5 |
| 20260506190502 | 62 | 306 | 0.0 | 4.0 | 0.01 | 0.66 | 0.24 | 44 | 1011.5 |
| 20260506190002 | 62 | 303 | 1.0 | 4.0 | 0.01 | 0.66 | 0.24 | 44 | 1011.4 |
| 20260506185501 | 62 | 303 | 0.0 | 3.0 | 0.01 | 0.66 | 0.24 | 45 | 1011.4 |
| 20260506185001 | 62 | 15 | 0.0 | 3.0 | 0.01 | 0.66 | 0.24 | 44 | 1011.4 |
| 20260506184501 | 63 | 328 | 1.0 | 4.0 | 0.02 | 0.66 | 0.24 | 42 | 1011.4 |
| 20260506184001 | 63 | 320 | 0.0 | 4.0 | 0.02 | 0.66 | 0.24 | 43 | 1011.4 |
| 20260506183601 | 63 | 311 | 2.0 | 4.0 | 0.01 | 0.65 | 0.23 | 44 | 1011.4 |
| 20260506183059 | 63 | 312 | 2.0 | 4.0 | 0.01 | 0.65 | 0.23 | 44 | 1011.3 |
| 20260506182559 | 62 | 277 | 1.0 | 3.0 | 0.01 | 0.65 | 0.23 | 48 | 1011.3 |
| 20260506182058 | 62 | 312 | 0.0 | 4.0 | 0.01 | 0.65 | 0.23 | 46 | 1011.4 |
| 20260506181558 | 62 | 324 | 1.0 | 4.0 | 0.01 | 0.65 | 0.23 | 41 | 1011.5 |
| 20260506181057 | 63 | 102 | 1.0 | 4.0 | 0.01 | 0.65 | 0.23 | 46 | 1011.4 |
| 20260506180557 | 62 | 303 | 1.0 | 4.0 | 0.01 | 0.65 | 0.23 | 47 | 1011.6 |
| 20260506180105 | 62 | 103 | 1.0 | 3.0 | 0.02 | 0.65 | 0.23 | 46 | 1011.7 |
| 20260506175555 | 61 | 349 | 0.0 | 0.0 | 0.02 | 0.65 | 0.23 | 49 | 1011.7 |
| 20260506175058 | 61 | 355 | 0.0 | 4.0 | 0.02 | 0.65 | 0.23 | 46 | 1011.8 |
| 20260506174556 | 61 | 355 | 1.0 | 5.0 | 0.01 | 0.64 | 0.22 | 46 | 1011.8 |
| 20260506174053 | 61 | 18 | 1.0 | 5.0 | 0.01 | 0.64 | 0.22 | 49 | 1011.7 |
| 20260506173553 | 61 | 59 | 0.0 | 3.0 | 0.01 | 0.64 | 0.22 | 49 | 1011.9 |
| 20260506173056 | 61 | 99 | 0.0 | 3.0 | 0.01 | 0.64 | 0.22 | 49 | 1011.7 |
| 20260506172551 | 60 | 101 | 1.0 | 3.0 | 0.01 | 0.64 | 0.22 | 49 | 1012.1 |
| 20260506172049 | 60 | 339 | 1.0 | 3.0 | 0.01 | 0.64 | 0.22 | 52 | 1012.0 |
| 20260506171551 | 60 | 113 | 0.0 | 3.0 | 0.02 | 0.64 | 0.22 | 50 | 1011.9 |
| 20260506171052 | 60 | 116 | 0.0 | 3.0 | 0.02 | 0.64 | 0.22 | 51 | 1012.1 |
| 20260506170548 | 60 | 302 | 1.0 | 3.0 | 0.02 | 0.64 | 0.22 | 52 | 1012.0 |
| 20260506170100 | 60 | 216 | 1.0 | 3.0 | 0.01 | 0.63 | 0.21 | 54 | 1012.0 |
| 20260506165546 | 60 | 178 | 1.0 | 3.0 | 0.01 | 0.63 | 0.21 | 57 | 1012.0 |
| 20260506165045 | 59 | 174 | 1.0 | 7.0 | 0.01 | 0.63 | 0.21 | 57 | 1012.2 |
| 20260506164545 | 58 | 286 | 0.0 | 7.0 | 0.01 | 0.63 | 0.21 | 52 | 1012.2 |
| 20260506164047 | 58 | 302 | 0.0 | 5.0 | 0.01 | 0.63 | 0.21 | 53 | 1012.0 |
| 20260506163546 | 57 | 305 | 2.0 | 5.0 | 0.01 | 0.63 | 0.21 | 55 | 1012.1 |
| 20260506163104 | 57 | 199 | 1.0 | 5.0 | 0.01 | 0.63 | 0.21 | 60 | 1011.9 |
| 20260506162543 | 56 | 113 | 0.0 | 7.0 | 0.02 | 0.63 | 0.21 | 58 | 1012.0 |
| 20260506162044 | 56 | 292 | 3.0 | 7.0 | 0.02 | 0.63 | 0.21 | 58 | 1012.0 |
| 20260506161540 | 56 | 198 | 0.0 | 4.0 | 0.01 | 0.62 | 0.20 | 61 | 1012.2 |
| 20260506161042 | 55 | 309 | 1.0 | 4.0 | 0.01 | 0.62 | 0.20 | 61 | 1012.1 |
| 20260506160539 | 55 | 355 | 1.0 | 3.0 | 0.01 | 0.62 | 0.20 | 63 | 1012.0 |
| 20260506160038 | 54 | 109 | 0.0 | 3.0 | 0.01 | 0.62 | 0.20 | 63 | 1011.9 |
| 20260506155539 | 54 | 135 | 0.0 | 4.0 | 0.01 | 0.62 | 0.20 | 65 | 1011.8 |
| 20260506155038 | 53 | 255 | 0.0 | 4.0 | 0.01 | 0.62 | 0.20 | 67 | 1011.8 |
| 20260506154548 | 53 | 292 | 1.0 | 4.0 | 0.01 | 0.62 | 0.20 | 68 | 1011.7 |
| 20260506154036 | 52 | 111 | 1.0 | 4.0 | 0.01 | 0.62 | 0.20 | 69 | 1011.7 |
| 20260506153536 | 52 | 306 | 1.0 | 4.0 | 0.02 | 0.62 | 0.20 | 68 | 1011.9 |
| 20260506153041 | 51 | 51 | 1.0 | 2.0 | 0.02 | 0.62 | 0.20 | 70 | 1012.1 |
| 20260506152535 | 51 | 52 | 0.0 | 3.0 | 0.01 | 0.61 | 0.19 | 71 | 1012.3 |
| 20260506152033 | 51 | 67 | 0.0 | 4.0 | 0.01 | 0.61 | 0.19 | 72 | 1012.1 |
| 20260506151532 | 51 | 75 | 0.0 | 4.0 | 0.01 | 0.61 | 0.19 | 72 | 1011.7 |
| 20260506151031 | 50 | 287 | 0.0 | 3.0 | 0.01 | 0.61 | 0.19 | 74 | 1011.7 |
| 20260506150530 | 50 | 266 | 0.0 | 3.0 | 0.01 | 0.61 | 0.19 | 76 | 1011.7 |
| 20260506150030 | 50 | 256 | 1.0 | 5.0 | 0.01 | 0.61 | 0.19 | 78 | 1011.8 |
| 20260506145532 | 50 | 241 | 0.0 | 5.0 | 0.01 | 0.61 | 0.19 | 80 | 1011.4 |
| 20260506145027 | 50 | 323 | 0.0 | 4.0 | 0.02 | 0.61 | 0.19 | 81 | 1011.2 |
| 20260506144527 | 50 | 307 | 0.0 | 4.0 | 0.02 | 0.61 | 0.19 | 84 | 1011.1 |
| 20260506144026 | 49 | 324 | 0.0 | 4.0 | 0.02 | 0.61 | 0.19 | 84 | 1011.0 |
| 20260506143529 | 49 | 52 | 0.0 | 4.0 | 0.01 | 0.60 | 0.18 | 86 | 1011.0 |
| 20260506143033 | 49 | 290 | 0.0 | 2.0 | 0.01 | 0.60 | 0.18 | 86 | 1010.8 |
| 20260506142525 | 49 | 290 | 1.0 | 2.0 | 0.01 | 0.60 | 0.18 | 86 | 1010.9 |
| 20260506142024 | 49 | 288 | 0.0 | 2.0 | 0.01 | 0.60 | 0.18 | 86 | 1011.0 |
| 20260506141523 | 49 | 329 | 0.0 | 2.0 | 0.01 | 0.60 | 0.18 | 86 | 1010.9 |
| 20260506141022 | 48 | 331 | 0.0 | 2.0 | 0.01 | 0.60 | 0.18 | 86 | 1010.8 |
| 20260506140525 | 48 | 331 | 1.0 | 2.0 | 0.01 | 0.60 | 0.18 | 86 | 1010.7 |
| 20260506140022 | 48 | 331 | 0.0 | 0.0 | 0.01 | 0.60 | 0.18 | 86 | 1010.8 |
| 20260506135522 | 48 | 331 | 0.0 | 0.0 | 0.02 | 0.60 | 0.18 | 86 | 1010.8 |
| 20260506135022 | 47 | 331 | 0.0 | 0.0 | 0.01 | 0.59 | 0.17 | 86 | 1010.8 |
| 20260506134520 | 47 | 331 | 0.0 | 0.0 | 0.01 | 0.59 | 0.17 | 86 | 1010.8 |
| 20260506134022 | 47 | 331 | 0.0 | 5.0 | 0.01 | 0.59 | 0.17 | 86 | 1010.7 |
| 20260506133520 | 47 | 331 | 2.0 | 5.0 | 0.01 | 0.59 | 0.17 | 86 | 1010.7 |
| 20260506133020 | 47 | 313 | 0.0 | 3.0 | 0.01 | 0.59 | 0.17 | 86 | 1010.8 |
| 20260506132518 | 47 | 313 | 0.0 | 3.0 | 0.01 | 0.59 | 0.17 | 86 | 1010.6 |
| 20260506132017 | 46 | 319 | 0.0 | 0.0 | 0.01 | 0.59 | 0.17 | 86 | 1010.2 |
| 20260506131518 | 46 | 321 | 0.0 | 0.0 | 0.01 | 0.59 | 0.17 | 86 | 1010.2 |
| 20260506131019 | 46 | 321 | 0.0 | 0.0 | 0.01 | 0.59 | 0.17 | 86 | 1010.2 |
| 20260506130519 | 47 | 321 | 0.0 | 0.0 | 0.02 | 0.59 | 0.17 | 86 | 1010.3 |
| 20260506130016 | 46 | 321 | 0.0 | 0.0 | 0.02 | 0.59 | 0.17 | 86 | 1010.2 |
| 20260506125515 | 46 | 321 | 0.0 | 0.0 | 0.01 | 0.57 | 0.16 | 86 | 1010.3 |
| 20260506125015 | 46 | 321 | 0.0 | 0.0 | 0.01 | 0.57 | 0.16 | 86 | 1010.5 |
| 20260506124515 | 46 | 320 | 0.0 | 0.0 | 0.01 | 0.57 | 0.16 | 85 | 1010.3 |
| 20260506124015 | 46 | 320 | 0.0 | 0.0 | 0.01 | 0.57 | 0.16 | 85 | 1010.3 |
| 20260506123514 | 46 | 320 | 0.0 | 0.0 | 0.01 | 0.57 | 0.16 | 85 | 1010.3 |
| 20260506123013 | 46 | 321 | 0.0 | 0.0 | 0.01 | 0.57 | 0.16 | 85 | 1010.4 |
| 20260506122511 | 46 | 321 | 0.0 | 0.0 | 0.01 | 0.57 | 0.16 | 85 | 1010.0 |
| 20260506122010 | 45 | 321 | 0.0 | 0.0 | 0.02 | 0.57 | 0.16 | 85 | 1009.9 |
| 20260506121510 | 45 | 321 | 0.0 | 0.0 | 0.02 | 0.57 | 0.16 | 85 | 1010.2 |
| 20260506121009 | 45 | 321 | 0.0 | 0.0 | 0.02 | 0.57 | 0.16 | 85 | 1010.0 |
| 20260506120509 | 45 | 321 | 0.0 | 0.0 | 0.01 | 0.56 | 0.15 | 85 | 1009.7 |
| 20260506120008 | 45 | 321 | 0.0 | 0.0 | 0.01 | 0.59 | 0.15 | 85 | 1009.6 |
| 20260506115509 | 45 | 321 | 0.0 | 0.0 | 0.01 | 0.59 | 0.15 | 84 | 1009.4 |
| 20260506115006 | 45 | 321 | 0.0 | 0.0 | 0.01 | 0.59 | 0.15 | 84 | 1009.2 |
| 20260506114509 | 45 | 321 | 0.0 | 0.0 | 0.02 | 0.59 | 0.15 | 84 | 1009.2 |
| 20260506114005 | 45 | 321 | 0.0 | 0.0 | 0.02 | 0.59 | 0.15 | 84 | 1009.0 |
| 20260506113504 | 45 | 321 | 0.0 | 0.0 | 0.02 | 0.59 | 0.15 | 84 | 1008.8 |
| 20260506113004 | 45 | 321 | 0.0 | 0.0 | 0.02 | 0.59 | 0.15 | 84 | 1009.2 |
| 20260506112503 | 45 | 321 | 0.0 | 0.0 | 0.02 | 0.59 | 0.15 | 84 | 1009.1 |
| 20260506112001 | 45 | 321 | 0.0 | 0.0 | 0.01 | 0.57 | 0.14 | 84 | 1008.6 |
| 20260506111501 | 45 | 321 | 0.0 | 0.0 | 0.01 | 0.57 | 0.14 | 84 | 1008.8 |
| 20260506111100 | 45 | 321 | 0.0 | 0.0 | 0.01 | 0.57 | 0.14 | 84 | 1008.7 |
| 20260506110600 | 45 | 321 | 0.0 | 0.0 | 0.02 | 0.57 | 0.14 | 84 | 1008.9 |
| 20260506110104 | 45 | 321 | 0.0 | 0.0 | 0.02 | 0.61 | 0.14 | 84 | 1008.8 |
| 20260506105558 | 45 | 321 | 0.0 | 0.0 | 0.02 | 0.61 | 0.14 | 84 | 1008.5 |
| 20260506105057 | 45 | 321 | 0.0 | 0.0 | 0.02 | 0.61 | 0.14 | 84 | 1008.1 |
| 20260506104557 | 45 | 321 | 0.0 | 0.0 | 0.01 | 0.60 | 0.13 | 83 | 1007.9 |
| 20260506104057 | 45 | 321 | 0.0 | 0.0 | 0.01 | 0.60 | 0.13 | 83 | 1008.1 |
| 20260506103556 | 45 | 321 | 0.0 | 0.0 | 0.02 | 0.60 | 0.13 | 83 | 1008.3 |
| 20260506103056 | 45 | 321 | 0.0 | 0.0 | 0.02 | 0.60 | 0.13 | 83 | 1008.1 |
| 20260506102556 | 45 | 321 | 0.0 | 0.0 | 0.02 | 0.60 | 0.13 | 83 | 1008.3 |
| 20260506102055 | 45 | 315 | 0.0 | 0.0 | 0.02 | 0.60 | 0.13 | 83 | 1008.3 |
| 20260506101603 | 45 | 315 | 0.0 | 0.0 | 0.02 | 0.60 | 0.13 | 83 | 1008.1 |
| 20260506101053 | 45 | 315 | 0.0 | 0.0 | 0.02 | 0.60 | 0.13 | 83 | 1007.6 |
| 20260506100553 | 45 | 315 | 0.0 | 0.0 | 0.01 | 0.59 | 0.12 | 83 | 1007.4 |
| 20260506100053 | 45 | 315 | 0.0 | 0.0 | 0.02 | 0.59 | 0.12 | 82 | 1007.4 |
| 20260506095556 | 45 | 315 | 0.0 | 0.0 | 0.02 | 0.59 | 0.12 | 82 | 1007.4 |
| 20260506095053 | 45 | 315 | 0.0 | 0.0 | 0.02 | 0.59 | 0.12 | 82 | 1007.3 |
| 20260506094616 | 45 | 315 | 0.0 | 0.0 | 0.02 | 0.59 | 0.12 | 82 | 1007.4 |
| 20260506094052 | 46 | 315 | 0.0 | 0.0 | 0.02 | 0.59 | 0.12 | 82 | 1007.6 |
| 20260506093552 | 46 | 315 | 0.0 | 1.0 | 0.01 | 0.57 | 0.11 | 82 | 1007.9 |
| 20260506093055 | 46 | 315 | 0.0 | 2.0 | 0.02 | 0.57 | 0.11 | 82 | 1007.6 |
| 20260506092550 | 46 | 315 | 0.0 | 2.0 | 0.02 | 0.57 | 0.11 | 82 | 1007.5 |
| 20260506092049 | 46 | 315 | 0.0 | 2.0 | 0.02 | 0.57 | 0.11 | 82 | 1007.2 |
| 20260506091549 | 46 | 315 | 0.0 | 0.0 | 0.02 | 0.57 | 0.11 | 82 | 1007.1 |
| 20260506091049 | 46 | 315 | 0.0 | 0.0 | 0.02 | 0.57 | 0.11 | 82 | 1006.9 |
| 20260506090547 | 46 | 315 | 0.0 | 1.0 | 0.02 | 0.57 | 0.11 | 82 | 1006.9 |
| 20260506090047 | 46 | 315 | 0.0 | 1.0 | 0.01 | 0.56 | 0.10 | 82 | 1006.9 |
| 20260506085548 | 46 | 315 | 0.0 | 3.0 | 0.02 | 0.56 | 0.10 | 82 | 1006.9 |
| 20260506085046 | 46 | 315 | 0.0 | 3.0 | 0.02 | 0.56 | 0.10 | 82 | 1007.1 |
| 20260506084547 | 46 | 315 | 0.0 | 2.0 | 0.02 | 0.56 | 0.10 | 82 | 1007.5 |
| 20260506084046 | 47 | 315 | 0.0 | 4.0 | 0.02 | 0.56 | 0.10 | 82 | 1007.1 |
| 20260506083544 | 47 | 315 | 1.0 | 4.0 | 0.02 | 0.56 | 0.10 | 82 | 1007.1 |
| 20260506083042 | 47 | 5 | 1.0 | 3.0 | 0.01 | 0.56 | 0.09 | 82 | 1006.9 |
| 20260506082543 | 47 | 339 | 1.0 | 3.0 | 0.02 | 0.56 | 0.09 | 82 | 1006.8 |
| 20260506082039 | 47 | 324 | 1.0 | 8.0 | 0.02 | 0.56 | 0.09 | 82 | 1006.7 |
| 20260506081538 | 48 | 296 | 0.0 | 8.0 | 0.02 | 0.56 | 0.09 | 82 | 1006.6 |
| 20260506081037 | 48 | 321 | 0.0 | 0.0 | 0.02 | 0.56 | 0.09 | 82 | 1006.8 |
| 20260506080537 | 48 | 321 | 0.0 | 0.0 | 0.02 | 0.56 | 0.09 | 82 | 1006.8 |
| 20260506073041 | 48 | 347 | 1.0 | 2.0 | 0.01 | 0.54 | 0.07 | 81 | 1006.4 |
| 20260506072534 | 48 | 341 | 0.0 | 3.0 | 0.02 | 0.54 | 0.07 | 81 | 1006.6 |
| 20260506072034 | 48 | 340 | 1.0 | 4.0 | 0.02 | 0.54 | 0.07 | 81 | 1006.8 |
| 20260506071534 | 49 | 314 | 1.0 | 4.0 | 0.02 | 0.54 | 0.07 | 81 | 1006.7 |
| 20260506071031 | 49 | 304 | 2.0 | 3.0 | 0.02 | 0.54 | 0.07 | 81 | 1006.5 |
| 20260506070528 | 49 | 304 | 1.0 | 3.0 | 0.02 | 0.54 | 0.07 | 81 | 1006.3 |
| 20260506062021 | 51 | 331 | 0.0 | 3.0 | 0.02 | 0.52 | 0.05 | 80 | 1005.6 |
| 20260506061528 | 51 | 340 | 0.0 | 4.0 | 0.03 | 0.52 | 0.05 | 80 | 1005.6 |
| 20260506061019 | 51 | 11 | 0.0 | 4.0 | 0.03 | 0.52 | 0.05 | 81 | 1005.8 |
| 20260506060519 | 52 | 302 | 0.0 | 0.0 | 0.03 | 0.52 | 0.05 | 81 | 1005.9 |
| 20260506051005 | 59 | 128 | 0.0 | 0.0 | 0.02 | 0.49 | 0.02 | 85 | 1005.2 |
| 20260506050506 | 59 | 128 | 0.0 | 0.0 | 0.02 | 0.49 | 0.02 | 85 | 1005.1 |
| 20260506045003 | 59 | 128 | 0.0 | 0.0 | 0.02 | 0.48 | 0.01 | 85 | 1005.0 |
| 20260506044504 | 59 | 128 | 0.0 | 0.0 | 0.02 | 0.48 | 0.01 | 84 | 1005.1 |
| 20260506044003 | 59 | 128 | 0.0 | 1.0 | 0.02 | 0.48 | 0.01 | 84 | 1005.1 |
| 20260506043502 | 59 | 128 | 0.0 | 1.0 | 0.02 | 0.48 | 0.01 | 84 | 1005.2 |
| 20260506043002 | 59 | 128 | 0.0 | 0.0 | 0.02 | 0.48 | 0.01 | 84 | 1005.2 |
| 20260506042505 | 59 | 128 | 0.0 | 0.0 | 0.02 | 0.48 | 0.01 | 84 | 1005.4 |
| 20260506042003 | 59 | 128 | 0.0 | 0.0 | 0.01 | 0.47 | 0.00 | 84 | 1005.2 |
| 20260506041602 | 59 | 128 | 0.0 | 0.0 | 0.02 | 0.47 | 0.00 | 84 | 1005.2 |
| 20260506041059 | 59 | 128 | 0.0 | 0.0 | 0.02 | 0.47 | 0.00 | 84 | 1005.0 |
| 20260506040558 | 59 | 128 | 0.0 | 1.0 | 0.02 | 0.47 | 0.00 | 84 | 1004.9 |
| 20260506040104 | 59 | 128 | 0.0 | 1.0 | 0.02 | 0.47 | 0.47 | 84 | 1004.8 |
| 20260506035557 | 59 | 128 | 0.0 | 0.0 | 0.02 | 0.47 | 0.47 | 84 | 1004.9 |
| 20260506035057 | 59 | 128 | 0.0 | 1.0 | 0.03 | 0.47 | 0.47 | 83 | 1005.0 |
| 20260506034611 | 59 | 128 | 0.0 | 1.0 | 0.02 | 0.46 | 0.46 | 83 | 1005.0 |
| 20260506034057 | 59 | 128 | 0.0 | 1.0 | 0.02 | 0.46 | 0.46 | 83 | 1005.1 |
| 20260506033557 | 59 | 128 | 0.0 | 2.0 | 0.02 | 0.46 | 0.46 | 82 | 1005.2 |
| 20260506033056 | 59 | 128 | 0.0 | 2.0 | 0.02 | 0.46 | 0.46 | 82 | 1005.2 |
| 20260506032556 | 59 | 128 | 0.0 | 1.0 | 0.03 | 0.46 | 0.46 | 82 | 1005.3 |
| 20260506032058 | 59 | 128 | 0.0 | 1.0 | 0.03 | 0.46 | 0.46 | 81 | 1005.5 |
| 20260506031604 | 59 | 128 | 0.0 | 1.0 | 0.02 | 0.45 | 0.45 | 81 | 1005.4 |
| 20260506031057 | 59 | 128 | 0.0 | 1.0 | 0.03 | 0.45 | 0.45 | 81 | 1005.4 |
| 20260506030555 | 59 | 128 | 0.0 | 0.0 | 0.03 | 0.45 | 0.45 | 81 | 1005.8 |
| 20260506030056 | 59 | 128 | 0.0 | 0.0 | 0.03 | 0.45 | 0.45 | 81 | 1005.7 |
| 20260506025554 | 59 | 128 | 0.0 | 0.0 | 0.04 | 0.45 | 0.45 | 80 | 1005.6 |
| 20260506025054 | 59 | 128 | 0.0 | 1.0 | 0.03 | 0.44 | 0.44 | 80 | 1005.6 |
| 20260506024555 | 59 | 128 | 0.0 | 1.0 | 0.04 | 0.44 | 0.44 | 80 | 1006.1 |
| 20260506024054 | 59 | 128 | 0.0 | 0.0 | 0.04 | 0.44 | 0.44 | 80 | 1006.3 |
| 20260506023554 | 59 | 128 | 0.0 | 0.0 | 0.04 | 0.44 | 0.44 | 80 | 1006.4 |
| 20260506023054 | 59 | 128 | 0.0 | 0.0 | 0.04 | 0.43 | 0.43 | 80 | 1006.3 |
| 20260506022553 | 59 | 128 | 0.0 | 0.0 | 0.05 | 0.43 | 0.43 | 79 | 1006.3 |
| 20260506022053 | 59 | 128 | 0.0 | 0.0 | 0.05 | 0.43 | 0.43 | 79 | 1006.3 |
| 20260506021557 | 59 | 128 | 0.0 | 1.0 | 0.06 | 0.43 | 0.43 | 79 | 1006.2 |
| 20260506021053 | 59 | 128 | 0.0 | 1.0 | 0.06 | 0.42 | 0.42 | 79 | 1006.1 |
| 20260506020553 | 59 | 128 | 0.0 | 1.0 | 0.07 | 0.42 | 0.42 | 79 | 1006.3 |
| 20260506020055 | 59 | 128 | 0.0 | 0.0 | 0.08 | 0.42 | 0.42 | 79 | 1006.4 |
| 20260506015552 | 59 | 128 | 0.0 | 0.0 | 0.08 | 0.41 | 0.41 | 79 | 1006.3 |
| 20260506015055 | 59 | 128 | 0.0 | 0.0 | 0.08 | 0.41 | 0.41 | 79 | 1006.3 |
| 20260506014552 | 59 | 128 | 0.0 | 0.0 | 0.07 | 0.40 | 0.40 | 79 | 1006.2 |
| 20260506014053 | 60 | 128 | 0.0 | 0.0 | 0.07 | 0.40 | 0.40 | 79 | 1006.2 |
| 20260506013552 | 60 | 128 | 0.0 | 0.0 | 0.07 | 0.40 | 0.40 | 79 | 1006.2 |
| 20260506013051 | 60 | 128 | 0.0 | 0.0 | 0.06 | 0.39 | 0.39 | 79 | 1006.1 |
| 20260506012551 | 60 | 128 | 0.0 | 0.0 | 0.05 | 0.38 | 0.38 | 79 | 1005.9 |
| 20260506012052 | 60 | 128 | 0.0 | 1.0 | 0.05 | 0.38 | 0.38 | 79 | 1006.0 |
| 20260506011551 | 60 | 128 | 0.0 | 1.0 | 0.04 | 0.37 | 0.37 | 79 | 1005.9 |
| 20260506011053 | 60 | 128 | 0.0 | 1.0 | 0.03 | 0.36 | 0.36 | 79 | 1005.9 |
| 20260506010550 | 60 | 128 | 0.0 | 1.0 | 0.02 | 0.35 | 0.35 | 78 | 1006.0 |
| 20260506010056 | 60 | 128 | 0.0 | 0.0 | 0.01 | 0.34 | 0.34 | 78 | 1006.1 |
| 20260506005550 | 60 | 128 | 0.0 | 0.0 | 0.01 | 0.33 | 0.33 | 78 | 1005.7 |
| 20260506005050 | 60 | 128 | 0.0 | 1.0 | 0.01 | 0.33 | 0.33 | 78 | 1005.6 |
| 20260506004551 | 60 | 128 | 0.0 | 1.0 | 0.01 | 0.33 | 0.33 | 78 | 1005.4 |
| 20260506004049 | 60 | 128 | 0.0 | 1.0 | 0.02 | 0.33 | 0.33 | 78 | 1005.5 |
| 20260506003549 | 60 | 128 | 0.0 | 1.0 | 0.02 | 0.33 | 0.33 | 78 | 1005.4 |
| 20260506003049 | 60 | 128 | 0.0 | 2.0 | 0.02 | 0.33 | 0.33 | 78 | 1005.5 |
| 20260506002551 | 60 | 128 | 0.0 | 2.0 | 0.02 | 0.33 | 0.33 | 78 | 1005.5 |
| 20260506002049 | 60 | 128 | 0.0 | 0.0 | 0.02 | 0.33 | 0.33 | 78 | 1005.5 |
| 20260506001549 | 61 | 128 | 0.0 | 1.0 | 0.02 | 0.33 | 0.33 | 78 | 1005.3 |
| 20260506001049 | 61 | 128 | 0.0 | 1.0 | 0.02 | 0.33 | 0.33 | 78 | 1005.2 |
| 20260506000549 | 61 | 128 | 0.0 | 1.0 | 0.02 | 0.33 | 0.33 | 78 | 1005.0 |
| 20260506000048 | 61 | 128 | 0.0 | 1.0 | 0.02 | 0.33 | 0.33 | 78 | 1005.1 |
| 20260505235549 | 61 | 128 | 0.0 | 2.0 | 0.01 | 0.32 | 0.32 | 78 | 1005.3 |
| 20260505235048 | 61 | 128 | 0.0 | 2.0 | 0.01 | 0.32 | 0.32 | 78 | 1005.4 |
| 20260505234556 | 61 | 129 | 0.0 | 2.0 | 0.01 | 0.32 | 0.32 | 78 | 1005.2 |
| 20260505234047 | 61 | 129 | 0.0 | 2.0 | 0.00 | 0.31 | 0.31 | 78 | 1005.5 |
| 20260505233547 | 61 | 129 | 0.0 | 1.0 | 0.00 | 0.31 | 0.31 | 78 | 1005.5 |
| 20260505233059 | 61 | 129 | 0.0 | 0.0 | 0.00 | 0.31 | 0.31 | 78 | 1005.5 |
| 20260505232547 | 61 | 129 | 0.0 | 1.0 | 0.00 | 0.31 | 0.31 | 78 | 1005.4 |
| 20260505232049 | 61 | 129 | 0.0 | 3.0 | 0.00 | 0.31 | 0.31 | 78 | 1005.4 |
| 20260505231552 | 61 | 129 | 0.0 | 3.0 | 0.00 | 0.31 | 0.31 | 78 | 1005.6 |
| 20260505231046 | 61 | 128 | 0.0 | 1.0 | 0.00 | 0.31 | 0.31 | 77 | 1005.6 |
| 20260505230548 | 61 | 128 | 0.0 | 1.0 | 0.00 | 0.31 | 0.31 | 77 | 1005.7 |
| 20260505230046 | 61 | 128 | 0.0 | 3.0 | 0.00 | 0.31 | 0.31 | 77 | 1005.7 |
| 20260505225547 | 61 | 129 | 0.0 | 5.0 | 0.00 | 0.31 | 0.31 | 77 | 1005.8 |
| 20260505225046 | 61 | 131 | 0.0 | 5.0 | 0.00 | 0.31 | 0.31 | 77 | 1005.8 |
| 20260505224546 | 61 | 159 | 1.0 | 6.0 | 0.01 | 0.31 | 0.31 | 76 | 1006.0 |
| 20260505224048 | 61 | 138 | 1.0 | 6.0 | 0.01 | 0.31 | 0.31 | 76 | 1006.0 |
| 20260505223545 | 61 | 125 | 0.0 | 2.0 | 0.01 | 0.31 | 0.31 | 76 | 1006.2 |
| 20260505223052 | 61 | 125 | 0.0 | 3.0 | 0.01 | 0.31 | 0.31 | 76 | 1006.2 |
| 20260505222547 | 61 | 126 | 0.0 | 4.0 | 0.02 | 0.31 | 0.31 | 76 | 1006.2 |
| 20260505222044 | 61 | 126 | 0.0 | 4.0 | 0.02 | 0.31 | 0.31 | 75 | 1006.2 |
| 20260505221546 | 61 | 151 | 0.0 | 1.0 | 0.03 | 0.31 | 0.31 | 75 | 1006.3 |
| 20260505221044 | 62 | 151 | 0.0 | 5.0 | 0.04 | 0.31 | 0.31 | 75 | 1006.4 |
| 20260505220548 | 62 | 151 | 0.0 | 5.0 | 0.05 | 0.31 | 0.31 | 74 | 1006.5 |
| 20260505220043 | 62 | 340 | 0.0 | 1.0 | 0.06 | 0.31 | 0.31 | 74 | 1006.6 |
| 20260505215543 | 62 | 340 | 0.0 | 1.0 | 0.07 | 0.31 | 0.31 | 74 | 1006.6 |
| 20260505215044 | 62 | 340 | 0.0 | 1.0 | 0.07 | 0.31 | 0.31 | 74 | 1006.6 |
| 20260505214549 | 62 | 340 | 0.0 | 1.0 | 0.07 | 0.30 | 0.30 | 74 | 1006.6 |
| 20260505214043 | 62 | 328 | 0.0 | 1.0 | 0.08 | 0.30 | 0.30 | 73 | 1006.6 |
| 20260505213543 | 62 | 326 | 0.0 | 1.0 | 0.09 | 0.30 | 0.30 | 73 | 1006.6 |
| 20260505213043 | 62 | 326 | 0.0 | 2.0 | 0.09 | 0.30 | 0.30 | 73 | 1006.6 |
| 20260505212543 | 62 | 316 | 0.0 | 2.0 | 0.09 | 0.28 | 0.28 | 72 | 1006.6 |
| 20260505212042 | 62 | 346 | 0.0 | 2.0 | 0.10 | 0.28 | 0.28 | 72 | 1006.6 |
| 20260505211542 | 62 | 347 | 0.0 | 2.0 | 0.09 | 0.28 | 0.28 | 72 | 1006.6 |